[[{"header":{"parameterUnit":"m.s-1","parameterCategory":1,"la1":30.2991,"la2":30.254,"lo1":-89.0895,"lo2":-89.0444,"dy":0.0017,"dx":0.0017,"nx":28,"ny":28,"refTime":"2024-07-14T03:00:00:Z","depth":0,"parameterNumber":2,"parameterNumberName":"U-component_of_WINDS"},"data":[0,0,0,0,0,0,0,0,0,0,0,0,0,0,0,0,0,0,0,0,0,0,0,0,0,0,0,0,0,0,0,0,0,0,0,0,0,0,0,0,0,0,0,0,0,0,0,0,0,0,0,0,0,0,0,0,0,0,2.2653,2.2654,0,2.2712,2.2713,2.2714,2.2648,2.2646,2.2643,2.2641,2.2702,2.2706,2.2709,0,0,0,0,0,0,0,0,0,0,0,0,0,2.2483,2.2486,2.2653,2.2654,2.2655,2.2712,2.2713,2.2714,2.2648,2.2645,2.2642,2.264,2.27,2.2705,2.271,0,0,0,0,0,0,0,0,0,0,0,0,0,2.2551,2.2488,2.2653,2.2629,2.2628,2.2712,2.2713,2.2714,2.2649,2.2645,2.2642,2.2638,2.2699,2.2705,2.271,2.2822,0,0,2.2729,2.2731,0,0,0,0,0,0,0,0,2.2547,2.2557,2.2632,2.2631,2.2629,2.2669,2.2675,2.275,2.265,2.2641,2.2641,2.2636,2.2694,2.27,2.2719,2.2825,2.2827,2.2729,2.2733,2.2735,2.2737,0,0,0,0,0,0,0,2.2543,2.2554,2.2677,2.2633,2.2632,2.2615,2.2621,2.2689,2.2688,2.2641,2.2637,2.2645,2.2692,2.2714,2.272,2.2828,2.2729,2.2734,2.2738,2.274,2.3025,2.3029,0,0,0,0,0,0,2.2541,2.2551,2.2675,2.2679,2.2578,2.2621,2.2627,2.266,2.2687,2.2687,2.2648,2.2641,2.2705,2.2713,2.2722,2.2852,2.2735,2.2741,2.2744,2.3021,2.3026,2.3031,0,0,0,0,0,0,2.2537,2.2552,2.2672,2.2614,2.2628,2.2628,2.2665,2.2663,2.2684,2.2692,2.2691,2.267,2.2703,2.2714,2.2797,2.2854,2.2743,2.2749,2.3017,2.3023,2.3029,2.3115,0,0,0,0,0,0,2.2533,2.2552,2.2594,2.2615,2.2631,2.2747,2.2669,2.2667,2.2695,2.2687,2.2712,2.2713,2.2701,2.2788,2.2803,2.286,2.2753,2.3012,2.302,2.3027,2.3107,2.3123,2.3137,0,0,0,0,0,2.2527,2.2617,2.2597,2.2612,2.2684,2.275,2.2759,2.2744,2.27,2.2742,2.2746,2.2712,2.2845,2.2798,2.2813,2.2873,2.3008,2.3017,2.3026,2.31,2.312,2.3137,0,0,0,0,0,0,2.2604,2.2619,2.2597,2.2697,2.2723,2.2739,2.2792,2.2766,2.2805,2.2796,2.2775,2.2781,2.2869,2.2879,2.2826,2.2981,2.2919,2.2932,2.2971,2.2989,2.3004,2.2999,2.2758,0,0,0,0,0,2.2632,2.2685,2.2695,2.2782,2.2796,2.2792,2.2821,2.2806,2.2832,2.2843,2.2853,2.288,2.2927,2.2959,2.3004,2.3109,2.3112,2.3157,2.3172,2.3185,2.3195,2.3249,2.3269,2.306,2.306,2.306,0,0,2.2692,2.2707,2.2741,2.2798,2.2816,2.287,2.2802,2.2863,2.2902,2.2852,2.293,2.2939,2.2967,2.3061,2.3103,2.3073,2.3254,2.3196,2.3206,2.321,2.3261,2.328,2.3298,2.3067,2.3066,2.3065,0,0,2.2827,2.2845,2.2917,2.2937,2.2965,2.2962,2.2979,2.3,2.3003,2.3082,2.3044,2.3091,2.3174,2.3195,2.3217,2.3358,2.3327,2.3374,2.3452,2.3505,2.3521,2.3535,2.3584,2.3602,2.3384,2.3385,2.3385,0,2.2897,2.2977,2.2959,2.3021,2.3046,2.3003,2.3076,2.3096,2.3138,2.3156,2.3121,2.3223,2.3239,2.3336,2.337,2.339,2.3408,2.337,2.352,2.3534,2.3548,2.3594,2.3612,2.339,2.3389,2.3389,2.3388,0,2.3061,2.3117,2.3173,2.3213,2.3244,2.3312,2.3303,2.3338,2.332,2.332,2.3399,2.3417,2.3463,2.3485,2.347,2.358,2.356,2.3523,2.3461,2.3573,2.3616,2.3633,2.3397,2.3396,2.3394,2.3393,0,0,2.3247,2.3274,2.3295,2.3312,2.3339,2.3382,2.3447,2.3492,2.352,2.3551,2.3604,2.3674,2.364,2.3664,2.365,2.3697,2.3805,2.3654,2.3654,2.368,2.3926,2.3952,2.3973,2.3785,2.3789,2.3791,2.3923,0,2.3381,2.3493,2.3478,2.3585,2.3636,2.3595,2.3651,2.3674,2.3675,2.3718,2.3719,2.3769,2.3721,2.3735,2.3779,2.3783,2.3854,2.3773,2.3833,2.3836,2.3826,2.3996,2.4024,2.4147,2.394,2.3942,2.3944,0,2.3553,2.3587,2.37,2.3718,2.3738,2.3789,2.3828,2.387,2.3894,2.3891,2.3918,2.3895,2.3959,2.3896,2.3984,2.3929,2.3953,2.3958,2.3962,2.3966,2.3896,2.4002,2.4186,2.4204,2.3971,2.3969,2.3967,0,2.3674,2.3749,2.3826,2.3842,2.3865,2.3901,2.3913,2.3933,2.396,2.3994,2.4011,2.4052,2.4075,2.4107,2.4095,2.4051,2.4184,2.4121,2.4183,2.4183,2.4212,2.421,2.44,2.423,2.423,2.4229,2.4229,0,2.3824,2.3895,2.388,2.3927,2.4004,2.3985,2.4062,2.4068,2.4086,2.4133,2.4101,2.4145,2.4128,2.4171,2.4163,2.4235,2.4246,2.4245,2.4241,2.4247,2.4247,2.4261,2.4252,2.4234,2.4233,2.4232,2.4231,0,2.3973,2.3966,2.4047,2.4061,2.4067,2.4122,2.4135,2.4178,2.4177,2.4236,2.4249,2.4247,2.4296,2.4288,2.4343,2.4337,2.4427,2.4414,2.4418,2.4415,2.4476,2.447,2.4681,2.4707,2.4522,2.4524,2.4525,0,2.4068,2.4121,2.4141,2.417,2.4183,2.4231,2.4257,2.4241,2.427,2.4301,2.434,2.4386,2.4422,2.4503,2.4506,2.4547,2.4533,2.4605,2.4539,2.4543,2.4532,2.4528,2.4533,2.4617,2.4619,2.4621,2.4622,0,2.4238,2.4232,2.4272,2.4311,2.4344,2.4374,2.4401,2.4426,2.4412,2.4446,2.4496,2.4523,2.4578,2.4624,2.4662,2.4673,2.4645,2.4643,2.4659,2.4664,2.4664,2.4663,2.4451,2.4638,2.4636,2.4635,2.4634,2.4634,2.4362,2.4406,2.4426,2.4471,2.449,2.4515,2.4556,2.4559,2.46,2.4643,2.4631,2.4686,2.4707,2.4756,2.4771,2.4814,2.4787,2.4811,2.4817,2.4823,2.4829,2.4659,2.4821,2.482,2.482,2.482,2.4819,0,2.4528,2.4539,2.4581,2.4618,2.4654,2.4624,2.4652,2.4683,2.4732,2.4755,2.479,2.4846,2.4889,2.4896,2.4937,2.497,2.4958,2.4981,2.4977,2.498,2.4851,2.4832,2.499,2.499,2.499,2.499,2.499,2.499,2.4619,2.4691,2.4687,2.4767,2.4777,2.4831,2.4849,2.4872,2.4889,2.4953,2.4988,2.4992,2.5007,2.5049,2.5087,2.5088,2.5104,2.5132,2.5127,2.5006,2.4989,2.4973,2.4955,2.5136,2.5136,2.5252,2.5253,2.5254]},{"header":{"parameterUnit":"m.s-1","parameterCategory":1,"la1":30.2991,"la2":30.254,"lo1":-89.0895,"lo2":-89.0444,"dy":0.0017,"dx":0.0017,"nx":28,"ny":28,"refTime":"2024-07-14T03:00:00:Z","depth":0,"parameterNumber":3,"parameterNumberName":"V-component_of_WINDS"},"data":[0,0,0,0,0,0,0,0,0,0,0,0,0,0,0,0,0,0,0,0,0,0,0,0,0,0,0,0,0,0,0,0,0,0,0,0,0,0,0,0,0,0,0,0,0,0,0,0,0,0,0,0,0,0,0,0,0,0,1.1361,1.1361,0,1.1368,1.1368,1.1368,1.1335,1.1334,1.1333,1.1332,1.134,1.1341,1.1342,0,0,0,0,0,0,0,0,0,0,0,0,0,1.1319,1.132,1.1361,1.1361,1.1361,1.1368,1.1368,1.1368,1.1335,1.1334,1.1332,1.1331,1.134,1.1341,1.1342,0,0,0,0,0,0,0,0,0,0,0,0,0,1.1333,1.132,1.1361,1.1345,1.1344,1.1367,1.1368,1.1368,1.1335,1.1333,1.1332,1.1331,1.1339,1.1341,1.1342,1.1382,0,0,1.1348,1.1348,0,0,0,0,0,0,0,0,1.1332,1.1334,1.1347,1.1346,1.1345,1.1349,1.1356,1.1372,1.1335,1.1338,1.1332,1.133,1.1344,1.1345,1.135,1.1382,1.1382,1.1348,1.1349,1.1349,1.135,0,0,0,0,0,0,0,1.1331,1.1334,1.1363,1.1348,1.1346,1.1338,1.1338,1.1359,1.1349,1.1338,1.1336,1.1337,1.1343,1.1348,1.135,1.1383,1.1348,1.1349,1.135,1.1351,1.1446,1.1447,0,0,0,0,0,0,1.1332,1.1333,1.1363,1.1364,1.1335,1.134,1.134,1.1349,1.1349,1.1348,1.1338,1.1335,1.1346,1.1348,1.135,1.1395,1.1349,1.1351,1.1352,1.1444,1.1446,1.1448,0,0,0,0,0,0,1.1331,1.1335,1.1363,1.1348,1.1351,1.1342,1.1352,1.135,1.1355,1.1349,1.1347,1.1345,1.1345,1.1348,1.1374,1.1395,1.1352,1.1353,1.1442,1.1445,1.1447,1.1486,0,0,0,0,0,0,1.133,1.1335,1.135,1.1348,1.1352,1.1387,1.1353,1.1351,1.1358,1.1354,1.1355,1.1354,1.1344,1.1371,1.1375,1.1396,1.1355,1.1441,1.1444,1.1446,1.1483,1.1489,1.1495,0,0,0,0,0,1.1329,1.1361,1.1351,1.1355,1.137,1.1388,1.139,1.1378,1.136,1.1374,1.137,1.1354,1.1392,1.1374,1.1378,1.14,1.1439,1.1443,1.1446,1.148,1.1488,1.1494,0,0,0,0,0,0,1.1367,1.1361,1.1349,1.1382,1.1386,1.1382,1.1401,1.1387,1.1396,1.1392,1.1377,1.1377,1.1406,1.1406,1.1386,1.1437,1.1412,1.1417,1.1437,1.1444,1.145,1.1449,1.1356,0,0,0,0,0,1.1379,1.1393,1.1388,1.1417,1.1419,1.141,1.1417,1.1407,1.1411,1.1412,1.141,1.1414,1.1426,1.1435,1.1447,1.1482,1.1481,1.1499,1.1505,1.151,1.1514,1.1532,1.1539,1.1459,1.1459,1.1459,0,0,1.1404,1.1403,1.1413,1.1425,1.1426,1.1442,1.1411,1.143,1.1441,1.1415,1.1439,1.1438,1.1441,1.1471,1.1485,1.1472,1.1536,1.1514,1.1519,1.152,1.1536,1.1543,1.155,1.1461,1.1461,1.146,0,0,1.1458,1.1459,1.1482,1.1484,1.1486,1.148,1.1485,1.1484,1.1481,1.1505,1.1486,1.1499,1.1521,1.1524,1.1528,1.1581,1.1566,1.1585,1.1617,1.1634,1.1641,1.1646,1.1664,1.1671,1.1589,1.159,1.159,0,1.1489,1.1511,1.1497,1.1515,1.1521,1.1497,1.1521,1.1523,1.153,1.1534,1.1519,1.1546,1.1547,1.1577,1.1589,1.1594,1.16,1.1585,1.1641,1.1646,1.1651,1.1668,1.1675,1.1592,1.1592,1.1591,1.1591,0,1.1549,1.1565,1.1584,1.1589,1.1597,1.1618,1.1606,1.1615,1.1604,1.1599,1.1623,1.1623,1.1633,1.1639,1.1629,1.1668,1.166,1.1643,1.1618,1.1661,1.1677,1.1683,1.1595,1.1594,1.1594,1.1593,0,0,1.1628,1.1624,1.1631,1.1632,1.1632,1.1644,1.1664,1.1673,1.1681,1.1686,1.1701,1.172,1.1704,1.1709,1.1699,1.1714,1.1755,1.1696,1.1696,1.1706,1.1796,1.1808,1.1816,1.1745,1.1746,1.1747,1.1796,0,1.168,1.1713,1.17,1.1734,1.1747,1.1724,1.1741,1.1743,1.1738,1.1749,1.1744,1.1757,1.1735,1.1738,1.1752,1.1747,1.1773,1.1743,1.1759,1.176,1.1759,1.1824,1.1838,1.1884,1.1802,1.1803,1.1804,0,1.1745,1.1751,1.1787,1.1782,1.1788,1.1803,1.181,1.1821,1.1822,1.1817,1.1822,1.1808,1.1826,1.1801,1.1826,1.1806,1.1812,1.181,1.1812,1.1813,1.1784,1.1827,1.1898,1.1905,1.1813,1.1812,1.1812,0,1.1798,1.1815,1.1838,1.184,1.1836,1.1847,1.1846,1.1846,1.1852,1.1858,1.1861,1.187,1.1874,1.1881,1.1869,1.1852,1.1896,1.1869,1.1892,1.1892,1.1902,1.1902,1.1975,1.1907,1.1907,1.1907,1.1906,0,1.1857,1.188,1.1861,1.1876,1.1899,1.1883,1.1908,1.1904,1.1904,1.1917,1.1897,1.191,1.1894,1.1905,1.1896,1.1918,1.192,1.1917,1.1914,1.1918,1.1919,1.1922,1.1918,1.1908,1.1908,1.1908,1.1907,0,1.1921,1.1909,1.1933,1.1926,1.1925,1.1943,1.1938,1.195,1.1943,1.196,1.1963,1.1952,1.1964,1.1953,1.1965,1.1958,1.1987,1.198,1.1987,1.1984,1.2007,1.2005,1.2085,1.2094,1.202,1.2021,1.2022,0,1.1959,1.1975,1.197,1.1977,1.1977,1.1988,1.1993,1.1978,1.1985,1.1986,1.1999,1.2008,1.2015,1.2035,1.2028,1.2037,1.2029,1.2057,1.2031,1.2034,1.2029,1.2028,1.2029,1.2062,1.2063,1.2064,1.2064,0,1.2028,1.2021,1.2029,1.2035,1.2042,1.2046,1.2049,1.2055,1.2039,1.2048,1.2059,1.2064,1.2075,1.2085,1.2091,1.209,1.2074,1.2073,1.2078,1.2082,1.2085,1.2083,1.2,1.2071,1.207,1.207,1.2069,1.2069,1.2079,1.2092,1.209,1.2099,1.2099,1.2102,1.2113,1.2107,1.2116,1.2123,1.2113,1.2127,1.2126,1.2132,1.2133,1.2143,1.2132,1.214,1.2142,1.2144,1.2147,1.2084,1.2145,1.2144,1.2144,1.2144,1.2144,0,1.2147,1.2144,1.2152,1.2156,1.2163,1.2147,1.2149,1.2156,1.2168,1.2168,1.2175,1.2187,1.2196,1.219,1.2197,1.2207,1.22,1.2209,1.2208,1.2208,1.2158,1.2152,1.2215,1.2215,1.2215,1.2215,1.2215,1.2215,1.2182,1.2203,1.2195,1.2215,1.2212,1.2225,1.2227,1.2229,1.2229,1.2243,1.225,1.2245,1.2243,1.225,1.2257,1.2255,1.2259,1.227,1.2266,1.2219,1.2212,1.2205,1.22,1.2272,1.2272,1.2315,1.2316,1.2316]}]]